Flag for Germany Weather past 2 weeks in Geretsried, Bavaria, Germany

Now
63 °F

Partly sunny.


Feels Like: 63 °F
Forecast: 43 / 63 °F
Wind: 8 mph from West

Location: Oberpfaffenhofen

Current Time: Aug 23, 2014 at 3:42:01 PM

Latest Report: Aug 23, 2014 at 2:50 PM


Visibility: N/A

Pressure: 30.01 "Hg

Humidity: 59%

Dew point: 48 °F

Location of GeretsriedLocation

Historic Weather in Geretsried — Graph

°F

Geretsried temperature yesterday

Maximum temperature yesterday: 68 °F (at 5:50 PM)
Minimum temperature yesterday: 50 °F (at 6:50 AM)
Average temperature yesterday: 61 °F

Past Weeks' High & Low Weather Summary

 TemperatureHumidityPressure
High84 °F (Aug 10, 2:50 PM)94% (Aug 11, 6:50 AM)30.15 "Hg (Aug 11, 6:50 AM)
Low50 °F (Aug 22, 6:50 AM)37% (Aug 10, 2:50 PM)29.68 "Hg (Aug 13, 3:50 PM)
Average62 °F69%29.98 "Hg
* Reported Aug 8 2:20 PM — Aug 23 2:50 PM, Geretsried, Weather by CustomWeather, © 2014

Note: Actual official high and low records may vary slightly from our data, if they occured in-between our weather recording intervals... More about our weather records

Advertising

Geretsried weather history for previous 24 hours

 ConditionsComfort  
Time TempWeatherWind HumidityBarometerVisibility
2:50 PM
Aug 23
63 °FPartly sunny.8 mph59%30.01 "HgN/A
2:20 PM61 °FBroken clouds.7 mph63%30.01 "HgN/A
1:50 PM61 °FPartly sunny.6 mph63%30.01 "HgN/A
1:20 PM61 °FBroken clouds.9 mph59%30.01 "HgN/A
10:20 AM61 °FSunny.7 mph59%30.01 "Hg10 mi
9:50 AM61 °FSunny.9 mph55%30.01 "Hg10 mi
9:20 AM61 °FSunny.7 mph63%30.01 "Hg10 mi
8:50 AM59 °FSunny.6 mph68%30.01 "Hg10 mi
8:20 AM57 °FSunny.3 mph77%30.01 "Hg10 mi
6:50 PM
Aug 22
64 °FPassing clouds.6 mph49%29.98 "HgN/A
6:20 PM66 °FPassing clouds.7 mph46%29.98 "HgN/A
5:50 PM68 °FPassing clouds.6 mph46%29.98 "HgN/A
5:20 PM66 °FPassing clouds.8 mph46%29.98 "HgN/A
4:50 PM64 °FSunny.9 mph49%29.98 "Hg10 mi
4:20 PM66 °FSunny.3 mph46%29.98 "Hg10 mi
3:50 PM66 °FPassing clouds.6 mph49%30.01 "HgN/A
3:20 PM66 °FPassing clouds.9 mph46%30.01 "HgN/A
Weather by CustomWeather, © 2014

See weather overviewHow to use our weather pages